Location: Newark
(0.5300°S, 127.4800°E)
Time: 17:19:35
(UTC+00:00)

Vanguard 3 - Pass Details

Date: 23 September 2019
Orbit: 508 x 3262 km, 33.3° (Epoch: 21 October)

Event Time Altitude Azimuth Distance (km) Brightness Sun altitude
Rises 17:22:48 0° 209° (SSW) 2,947 - -59.9°
Reaches altitude 10° 17:25:06 10° 195° (SSW) 2,238 - -59.3°
Maximum altitude 17:29:28 26° 137° (SE) 1,782 - -58.2°
Exits shadow 17:34:52 13° 88° (E) 3,083 10.4 -56.9°
Drops below altitude 10° 17:36:00 10° 83° (E) 3,452 10.7 -56.6°
Sets 17:40:31 0° 73° (ENE) 4,959 11.7 -55.5°
